Total_Precipitation_Accumulation
1.30 1.35 1.32 1.40 1.51 1.76 1.95 1.91 1.71 1.66 1.65 1.64 1.62 1.67 1.82 1.94 2.05 2.17 2.25 2.24 2.24 2.38 2.33 2.30 2.41 2.50 2.75 2.72 2.77 2.76 2.66 2.59 2.54 2.28 1.91 1.91 2.20 2.30 2.16 1.90 1.74 1.78 1.63
1.11 1.18 1.25 1.28 1.38 1.50 1.61 1.64 1.56 1.43 1.38 1.41 1.46 1.46 1.53 1.73 1.87 1.89 1.94 1.93 1.96 2.08 2.14 2.09 2.16 2.25 2.36 2.57 2.69 2.68 2.70 2.67 2.65 2.56 2.20 2.02 2.03 2.17 2.21 2.13 1.85 1.72 1.67
1.03 1.12 1.23 1.22 1.23 1.23 1.26 1.22 1.23 1.21 1.24 1.25 1.35 1.41 1.47 1.56 1.72 1.74 1.77 1.72 1.72 1.78 1.91 1.98 2.06 2.11 2.14 2.27 2.25 2.33 2.48 2.66 2.76 2.65 2.47 2.25 2.12 2.12 2.19 2.14 2.04 2.06 1.84
1.13 1.21 1.28 1.28 1.28 1.29 1.26 1.22 1.23 1.20 1.23 1.32 1.46 1.53 1.55 1.57 1.56 1.62 1.71 1.72 1.60 1.54 1.59 1.64 1.78 1.92 1.96 2.14 2.11 2.11 2.28 2.54 2.82 2.82 2.68 2.44 2.33 2.30 2.25 2.20 2.22 2.19 2.11
1.03 1.15 1.23 1.31 1.38 1.31 1.18 1.13 1.20 1.18 1.17 1.29 1.41 1.53 1.57 1.57 1.52 1.62 1.70 1.73 1.67 1.49 1.42 1.45 1.52 1.68 1.96 2.06 2.01 2.22 2.39 2.45 2.61 2.74 2.72 2.65 2.53 2.38 2.25 2.14 2.18 2.23 2.26
0.95 1.03 1.23 1.33 1.27 1.22 1.11 1.08 1.08 1.07 1.08 1.16 1.27 1.45 1.56 1.51 1.92 1.91 1.71 1.66 1.62 1.48 1.36 1.34 1.33 1.35 1.58 1.91 2.08 2.22 2.35 2.41 2.44 2.48 2.52 2.45 2.42 2.37 2.46 2.43 2.31 2.23 2.21
0.88 1.02 1.22 1.25 1.16 1.09 1.13 1.14 1.08 1.05 1.10 1.15 1.20 1.21 1.30 1.61 1.68 1.42 1.45 1.43 1.53 1.44 1.31 1.23 1.14 1.14 1.31 1.40 1.57 1.71 1.89 2.20 2.41 2.45 2.34 2.19 2.30 2.31 2.40 2.44 2.34 2.26 2.14
0.79 0.92 1.10 1.12 1.10 1.13 1.12 1.10 1.02 0.97 0.97 1.01 1.03 1.08 1.15 1.30 1.34 1.25 1.33 1.21 1.34 1.34 1.24 1.19 1.18 1.18 1.25 1.31 1.45 1.59 1.56 1.63 1.86 1.93 1.96 2.01 2.08 2.27 2.37 2.41 2.46 2.39 2.34
0.66 0.80 0.91 0.92 0.98 1.01 0.99 1.00 0.95 0.87 0.88 0.90 0.94 1.01 1.09 1.08 1.14 1.15 1.21 1.28 1.41 1.38 1.24 1.22 1.20 1.17 1.40 1.52 1.49 1.54 1.60 1.56 1.68 1.84 2.04 2.06 2.01 2.04 2.17 2.22 2.34 2.39 2.36
0.59 0.72 0.81 0.84 0.86 0.89 0.94 0.96 0.96 0.91 0.88 0.90 0.94 0.95 0.99 1.03 1.19 1.06 1.14 1.29 1.39 1.42 1.38 1.28 1.40 1.37 1.51 1.53 1.46 1.58 1.62 1.46 1.37 1.46 1.62 1.67 1.61 1.65 1.88 1.88 2.11 2.29 2.20
0.48 0.60 0.68 0.71 0.78 0.87 0.97 0.99 1.03 1.00 0.94 0.92 0.97 1.00 0.96 1.03 1.21 1.19 1.21 1.21 1.39 1.44 1.45 1.37 1.24 1.38 1.40 1.48 1.53 1.54 1.73 1.60 1.45 1.49 1.60 1.57 1.48 1.47 1.55 1.64 1.79 2.08 2.16
0.37 0.46 0.60 0.69 0.77 0.85 0.97 1.03 1.02 1.02 1.03 1.04 1.02 1.05 1.02 1.01 1.09 1.17 1.21 1.24 1.34 1.32 1.39 1.37 1.33 1.46 1.35 1.31 1.30 1.43 1.74 1.68 1.49 1.51 1.56 1.56 1.48 1.39 1.43 1.48 1.59 1.70 1.81
0.33 0.37 0.46 0.53 0.57 0.67 0.79 0.92 0.99 0.98 0.98 1.00 1.06 1.13 1.15 1.08 1.15 1.29 1.17 1.16 1.23 1.20 1.20 1.32 1.31 1.31 1.24 1.16 1.22 1.34 1.47 1.58 1.58 1.50 1.41 1.39 1.39 1.40 1.45 1.41 1.44 1.57 1.57
0.34 0.36 0.39 0.41 0.44 0.51 0.66 0.74 0.79 0.85 0.91 1.00 1.07 1.18 1.28 1.24 1.17 1.15 1.10 1.10 1.14 1.06 1.01 1.06 1.09 1.10 1.08 1.06 1.11 1.17 1.27 1.45 1.58 1.48 1.34 1.36 1.41 1.47 1.52 1.44 1.43 1.54 1.57
0.33 0.35 0.37 0.39 0.42 0.47 0.55 0.68 0.77 0.82 0.90 0.97 1.05 1.19 1.28 1.29 1.31 1.42 1.37 1.27 1.23 1.21 1.16 1.05 1.01 1.05 1.12 1.15 1.14 1.13 1.20 1.33 1.43 1.39 1.34 1.34 1.41 1.48 1.50 1.48 1.46 1.50 1.50
0.37 0.36 0.38 0.41 0.45 0.48 0.53 0.64 0.72 0.74 0.76 0.81 0.88 0.95 1.02 1.11 1.18 1.19 1.21 1.20 1.16 1.15 1.23 1.20 1.17 1.20 1.23 1.22 1.22 1.14 1.09 1.14 1.27 1.35 1.35 1.29 1.29 1.38 1.47 1.50 1.51 1.52 1.50
0.46 0.44 0.43 0.43 0.49 0.56 0.58 0.60 0.67 0.69 0.71 0.73 0.75 0.82 0.88 0.94 0.96 1.01 1.08 1.14 1.17 1.15 1.18 1.15 1.09 1.04 1.03 1.02 1.05 1.06 1.05 1.04 1.10 1.23 1.29 1.31 1.30 1.35 1.45 1.51 1.53 1.59 1.58
0.38 0.42 0.46 0.50 0.50 0.55 0.62 0.69 0.76 0.82 0.78 0.71 0.72 0.78 0.80 0.82 0.84 0.88 0.97 1.01 0.97 0.96 0.96 1.00 0.97 0.94 0.90 0.92 0.92 0.90 0.93 0.97 1.00 1.06 1.15 1.21 1.28 1.34 1.42 1.47 1.49 1.49 1.53
0.36 0.42 0.52 0.57 0.55 0.56 0.67 0.79 0.84 0.86 0.84 0.76 0.68 0.69 0.73 0.71 0.74 0.81 0.86 0.86 0.86 0.79 0.77 0.82 0.87 0.89 0.84 0.80 0.79 0.78 0.80 0.84 0.88 0.94 1.01 1.05 1.12 1.19 1.26 1.34 1.40 1.48 1.49
0.38 0.47 0.57 0.63 0.59 0.60 0.65 0.69 0.70 0.76 0.76 0.73 0.71 0.75 0.75 0.69 0.67 0.70 0.73 0.75 0.79 0.78 0.80 0.83 0.84 0.85 0.83 0.82 0.81 0.79 0.80 0.82 0.84 0.89 0.97 1.08 1.12 1.13 1.12 1.18 1.29 1.35 1.33
0.48 0.50 0.53 0.60 0.59 0.57 0.58 0.58 0.62 0.67 0.66 0.65 0.67 0.72 0.76 0.71 0.71 0.71 0.72 0.72 0.73 0.77 0.80 0.83 0.84 0.88 0.86 0.83 0.84 0.85 0.84 0.84 0.84 0.88 0.91 0.94 0.99 1.03 1.07 1.11 1.15 1.21 1.27
0.51 0.52 0.52 0.58 0.61 0.57 0.55 0.57 0.61 0.64 0.64 0.62 0.61 0.63 0.67 0.62 0.64 0.67 0.70 0.75 0.78 0.80 0.82 0.82 0.84 0.87 0.91 0.90 0.88 0.89 0.90 0.88 0.86 0.88 0.91 0.92 0.95 0.98 1.02 1.04 1.07 1.11 1.16
0.53 0.53 0.54 0.58 0.59 0.58 0.57 0.58 0.63 0.67 0.65 0.63 0.62 0.63 0.63 0.61 0.60 0.62 0.69 0.77 0.83 0.84 0.82 0.81 0.85 0.91 0.93 0.93 0.90 0.90 0.90 0.87 0.86 0.88 0.95 0.98 0.99 1.01 1.05 1.08 1.10 1.15 1.20
0.53 0.55 0.59 0.62 0.62 0.65 0.69 0.69 0.68 0.69 0.70 0.68 0.65 0.64 0.64 0.63 0.64 0.65 0.69 0.76 0.82 0.82 0.81 0.80 0.80 0.86 0.91 0.93 0.93 0.90 0.87 0.88 0.87 0.89 0.97 1.06 1.06 1.03 1.03 1.07 1.11 1.13 1.19
0.52 0.54 0.56 0.62 0.64 0.67 0.72 0.73 0.71 0.71 0.73 0.76 0.78 0.74 0.70 0.67 0.67 0.68 0.70 0.76 0.78 0.77 0.76 0.76 0.80 0.83 0.84 0.84 0.85 0.88 1.02 1.04 0.99 0.96 0.97 1.05 1.10 1.09 1.10 1.12 1.15 1.19 1.24
0.51 0.54 0.60 0.67 0.70 0.71 0.74 0.76 0.74 0.73 0.76 0.78 0.81 0.84 0.83 0.77 0.72 0.71 0.73 0.76 0.77 0.75 0.75 0.74 0.75 0.77 0.79 0.82 0.83 0.91 0.96 0.92 0.93 1.00 0.98 1.00 1.08 1.13 1.17 1.20 1.20 1.27 1.35